Location: ???
(60.6398°N, 46.9067°E)
Time: 19:08:24
(UTC+00:00)

Cosmos 292 Rocket - Pass Details

Date: 08 December 2019
Orbit: 673 x 695 km, 74.0° (Epoch: 17 January)

Event Time Altitude Azimuth Distance (km) Brightness Sun altitude
Rises 12:59:53 0° 323° (NW) 3,083 7.2 -7.9°
Reaches altitude 10° 13:02:21 10° 332° (NNW) 2,165 6.3 -8.2°
Maximum altitude 13:06:55 39° 41° (NE) 1,051 4.3 -8.7°
Drops below altitude 10° 13:11:29 10° 110° (ESE) 2,159 6.0 -9.1°
Sets 13:13:56 0° 119° (ESE) 3,072 6.8 -9.4°
